Location: Artiguedieu
(43.5000°N, 0.5454°E)
Time: 08:51:30
(UTC+00:00)

Explorer 7 - Pass Details

Date: 04 August 2021
Orbit: 484 x 676 km, 50.3° (Epoch: 22 September)

Event Time Altitude Azimuth Distance (km) Brightness Sun altitude
Rises 08:47:30 0° 299° (WNW) 2,648 9.9 41.0°
Reaches altitude 10° 08:49:39 10° 302° (WNW) 1,785 9.1 41.4°
Maximum altitude 08:53:43 69° 26° (NNE) 596 7.8 42.1°
Drops below altitude 10° 08:58:01 10° 111° (ESE) 1,897 10.7 42.8°
Sets 09:00:22 0° 113° (ESE) 2,830 11.3 43.3°
